GW1660 Weather Reports


time (UTC)temp
F
wind
direction
speed
knots
gust
knots
rain 1hr
in
rain 24hr
in
rain mn
in
humidity
%
barometer
mb
20260504201459 76 301 2.6 7.0 0.00 0.00 0.00 29 1008.9
20260504200956 75 284 1.7 3.5 0.00 0.00 0.00 31 1009.1
20260504200453 76 298 5.2 7.0 0.00 0.00 0.00 30 1009.0
20260504195949 76 291 2.6 2.6 0.00 0.00 0.00 30 1009.3
20260504195445 76 151 1.7 7.0 0.00 0.00 0.00 30 1009.4
20260504194942 76 274 1.7 5.2 0.00 0.00 0.00 31 1009.5
20260504194438 75 214 1.7 2.6 0.00 0.00 0.00 30 1009.5
20260504193934 75 278 7.8 9.6 0.00 0.00 0.00 31 1009.6
20260504193432 75 238 1.7 6.1 0.00 0.00 0.00 31 1009.7
20260504192930 75 291 4.3 6.1 0.00 0.00 0.00 30 1009.8
20260504192427 75 289 3.5 7.0 0.00 0.00 0.00 31 1009.8
20260504191926 75 172 0.9 1.7 0.00 0.00 0.00 30 1010.0
20260504191424 75 285 1.7 3.5 0.00 0.00 0.00 31 1010.2
20260504190919 74 133 1.7 7.0 0.00 0.00 0.00 32 1010.1
20260504190415 75 156 2.6 6.1 0.00 0.00 0.00 29 1010.3
20260504185912 75 204 1.7 2.6 0.00 0.00 0.00 29 1010.3
20260504185409 74 207 3.5 7.0 0.00 0.00 0.00 31 1010.4
20260504184904 73 274 2.6 5.2 0.00 0.00 0.00 32 1010.4
20260504184401 74 280 3.5 6.1 0.00 0.00 0.00 30 1010.3
20260504183857 74 235 5.2 9.6 0.00 0.00 0.00 31 1010.4
20260504183354 75 289 3.5 6.1 0.00 0.00 0.00 30 1010.6
20260504182851 74 253 3.5 5.2 0.00 0.00 0.00 31 1010.7
20260504182349 74 266 2.6 5.2 0.00 0.00 0.00 30 1010.8
20260504181845 75 275 1.7 3.5 0.00 0.00 0.00 32 1010.7
20260504181343 74 250 1.7 5.2 0.00 0.00 0.00 31 1010.7
20260504180842 74 296 0.9 3.5 0.00 0.00 0.00 31 1010.8
20260504180340 73 176 3.5 3.5 0.00 0.00 0.00 32 1011.0
20260504175838 74 289 1.7 2.6 0.00 0.00 0.00 33 1010.8
20260504175334 74 279 2.6 5.2 0.00 0.00 0.00 33 1011.0
20260504174832 73 181 4.3 5.2 0.00 0.00 0.00 30 1011.0
20260504174330 73 287 1.7 2.6 0.00 0.00 0.00 31 1011.2
20260504173826 73 278 1.7 6.1 0.00 0.00 0.00 35 1011.2
20260504173323 73 289 2.6 6.1 0.00 0.00 0.00 31 1011.3
20260504172820 73 267 2.6 3.5 0.00 0.00 0.00 33 1011.4
20260504172317 73 146 3.5 5.2 0.00 0.00 0.00 34 1011.3
20260504171812 72 290 3.5 5.2 0.00 0.00 0.00 31 1011.5
20260504171310 72 250 0.9 3.5 0.00 0.00 0.00 31 1011.7
20260504170807 71 265 4.3 6.1 0.00 0.00 0.00 31 1011.7
20260504170304 71 290 3.5 7.0 0.00 0.00 0.00 31 1011.8
20260504160222 69 291 5.2 6.1 0.00 0.00 0.00 35 1012.4
20260504150652 67 290 3.5 7.0 0.00 0.00 0.00 33 1012.9
20260504150149 67 294 2.6 7.8 0.00 0.00 0.00 34 1013.0
20260504141118 64 278 0.9 0.9 0.00 0.00 0.00 44 1013.6
20260504140615 62 91 0.0 0.0 0.00 0.00 0.00 44 1013.4
20260504140110 62 139 4.3 5.2 0.00 0.00 0.00 43 1013.6
20260504130539 59 43 0.0 0.9 0.00 0.00 0.00 44 1013.8
20260504110426 38 293 0.0 0.0 0.00 0.00 0.00 87 1014.1
20260504100343 37 293 0.0 0.0 0.00 0.00 0.00 88 1014.4
20260504081737 38 293 0.0 0.0 0.00 0.00 0.00 84 1014.6
20260504081233 38 293 0.0 0.0 0.00 0.00 0.00 85 1014.6
20260504080730 38 293 0.0 0.0 0.00 0.00 0.00 86 1014.6
20260504080226 38 293 0.0 0.0 0.00 0.00 0.00 86 1014.6
20260504070154 40 293 0.0 0.0 0.00 0.00 0.00 81 1014.4
20260504060114 42 293 0.0 0.0 0.00 0.00 0.00 77 1014.5
20260504050542 43 293 0.0 0.0 0.00 0.00 0.00 75 1014.6
20260504045536 43 293 0.0 0.0 0.00 0.00 0.00 76 1014.7
20260504045031 43 293 0.0 0.0 0.00 0.00 0.00 75 1014.7
20260504044529 43 293 0.0 0.0 0.00 0.00 0.00 76 1014.6
20260504044026 43 293 0.0 0.0 0.00 0.00 0.00 75 1014.7
20260504043523 43 293 0.0 0.0 0.00 0.00 0.00 73 1014.5
20260504043021 44 293 0.0 0.0 0.00 0.00 0.00 73 1014.5
20260504042517 44 293 0.0 0.0 0.00 0.00 0.00 71 1014.6
20260504042014 44 293 0.0 0.0 0.00 0.00 0.00 70 1014.5
20260504041510 45 293 0.0 0.0 0.00 0.00 0.00 69 1014.6
20260504041006 45 293 0.0 0.0 0.00 0.00 0.00 71 1014.5
20260504040504 45 293 0.9 0.9 0.00 0.00 0.00 73 1014.4
20260504035959 45 293 0.9 0.9 0.00 0.00 0.00 71 1014.3
20260504035457 45 293 0.0 0.0 0.00 0.00 0.00 70 1014.4
20260504034953 46 293 0.9 0.9 0.00 0.00 0.00 70 1014.2
20260504034451 46 294 0.0 0.0 0.00 0.00 0.00 66 1014.3
20260504033948 46 294 0.0 0.0 0.00 0.00 0.00 66 1014.5
20260504033446 46 294 0.0 0.0 0.00 0.00 0.00 68 1014.4
20260504032943 46 294 0.0 0.0 0.00 0.00 0.00 66 1014.3
20260504032440 46 294 0.0 0.0 0.00 0.00 0.00 67 1014.1
20260504031936 46 294 0.0 0.0 0.00 0.00 0.00 65 1014.2
20260504031433 46 294 0.0 0.0 0.00 0.00 0.00 68 1014.0
20260504030930 46 294 0.0 0.0 0.00 0.00 0.00 63 1014.2
20260504030427 46 294 0.0 0.0 0.00 0.00 0.00 66 1014.1
20260504025923 46 294 0.0 0.0 0.00 0.00 0.00 66 1014.1
20260504025420 47 294 0.0 0.0 0.00 0.00 0.00 60 1014.2
20260504024917 47 294 0.0 0.0 0.00 0.00 0.00 60 1014.1
20260504024414 48 294 0.0 0.0 0.00 0.00 0.00 60 1014.0
20260504023911 48 294 0.0 0.0 0.00 0.00 0.00 59 1013.9
20260504023407 48 294 0.0 0.0 0.00 0.00 0.00 58 1014.1
20260504022903 49 294 0.0 0.0 0.00 0.00 0.00 55 1014.1
20260504022400 49 294 0.0 0.0 0.00 0.00 0.00 54 1014.1
20260504021856 50 294 0.0 0.0 0.00 0.00 0.00 53 1014.2
20260504021354 50 294 0.0 0.0 0.00 0.00 0.00 54 1014.0
20260504020851 51 294 0.0 0.0 0.00 0.00 0.00 51 1014.0
20260504020347 52 294 0.0 0.0 0.00 0.00 0.00 47 1014.1
20260504015843 52 294 0.0 0.0 0.00 0.00 0.00 44 1014.1
20260504015340 52 294 0.0 0.0 0.00 0.00 0.00 43 1014.0
20260504014836 52 294 0.0 0.0 0.00 0.00 0.00 45 1013.9
20260504014332 53 294 0.0 0.0 0.00 0.00 0.00 45 1014.1
20260504013830 53 294 0.0 0.9 0.00 0.00 0.00 42 1014.1
20260504013328 53 294 0.0 0.9 0.00 0.00 0.00 41 1013.9
20260504012824 53 294 0.0 0.9 0.00 0.00 0.00 41 1014.0
20260504012322 54 294 0.0 0.0 0.00 0.00 0.00 41 1014.0
20260504011819 54 294 0.0 0.9 0.00 0.00 0.00 40 1013.8
20260504011316 54 294 0.0 0.0 0.00 0.00 0.00 40 1013.6
20260504010811 54 294 0.0 0.9 0.00 0.00 0.00 40 1013.8
20260504010307 54 294 0.0 0.0 0.00 0.00 0.00 40 1013.8
20260504005804 55 294 0.9 0.9 0.00 0.00 0.00 39 1013.7
20260504005301 55 294 0.0 0.9 0.00 0.00 0.00 39 1013.6
20260504004759 55 294 0.0 0.9 0.00 0.00 0.00 37 1013.6
20260504004256 56 294 0.0 0.9 0.00 0.00 0.00 37 1013.8
20260504003752 56 294 0.9 0.9 0.00 0.00 0.00 37 1013.6
20260504003249 56 294 0.9 0.9 0.00 0.00 0.00 36 1013.5
20260504002745 57 292 1.7 2.6 0.00 0.00 0.00 36 1013.4
20260504002242 57 296 1.7 1.7 0.00 0.00 0.00 35 1013.4
20260504001740 57 294 1.7 1.7 0.00 0.00 0.00 35 1013.3
20260504001237 57 287 1.7 1.7 0.00 0.00 0.00 34 1013.6
20260504000734 58 288 1.7 2.6 0.00 0.00 0.00 33 1013.2
20260504000231 58 289 1.7 2.6 0.00 0.00 0.00 33 1013.2
20260503235729 59 302 1.7 5.2 0.00 0.00 0.00 32 1012.9
20260503235226 59 291 1.7 6.1 0.00 0.00 0.00 32 1012.9
20260503234724 59 284 3.5 3.5 0.00 0.00 0.00 32 1012.9
20260503234222 59 259 3.5 6.1 0.00 0.00 0.00 31 1013.0
20260503233718 60 261 2.6 5.2 0.00 0.00 0.00 31 1012.8
20260503233214 60 280 3.5 5.2 0.00 0.00 0.00 31 1013.0
20260503232711 60 277 1.7 6.1 0.00 0.00 0.00 30 1012.9
20260503232208 60 278 1.7 3.5 0.00 0.00 0.00 30 1013.0
20260503231707 61 283 3.5 7.8 0.00 0.00 0.00 29 1013.0
20260503231203 61 262 5.2 7.0 0.00 0.00 0.00 29 1013.0
20260503230659 61 268 5.2 6.1 0.00 0.00 0.00 29 1012.9
20260503230156 61 282 4.3 7.8 0.00 0.00 0.00 28 1012.9
20260503225653 62 292 1.7 7.8 0.00 0.00 0.00 29 1012.8
20260503225153 62 292 7.0 9.6 0.00 0.00 0.00 28 1012.6
20260503224651 62 280 5.2 7.0 0.00 0.00 0.00 28 1012.8
20260503224149 61 289 3.5 6.1 0.00 0.00 0.00 29 1012.8
20260503223647 61 277 5.2 7.8 0.00 0.00 0.00 28 1012.8
20260503223143 61 280 3.5 8.7 0.00 0.00 0.00 29 1013.0
20260503222640 61 274 6.1 11.3 0.00 0.00 0.00 28 1012.9
20260503222138 62 304 5.2 6.1 0.00 0.00 0.00 28 1012.8
20260503221636 62 281 7.8 8.7 0.00 0.00 0.00 27 1012.7
20260503221133 62 225 2.6 5.2 0.00 0.00 0.00 28 1012.7
20260503220630 62 304 4.3 5.2 0.00 0.00 0.00 29 1012.8
20260503220126 61 297 7.0 9.6 0.00 0.00 0.00 28 1012.9
20260503215624 61 280 8.7 11.3 0.00 0.00 0.00 28 1012.7
20260503215120 61 277 7.0 12.2 0.00 0.00 0.00 29 1012.9
20260503214619 61 275 11.3 13.0 0.00 0.00 0.00 28 1012.9
20260503214114 61 324 8.7 9.6 0.00 0.00 0.00 28 1012.9
20260503213614 61 303 7.8 8.7 0.00 0.00 0.00 28 1012.7
20260503213110 62 290 7.0 11.3 0.00 0.00 0.00 27 1012.8
20260503212608 62 267 7.8 9.6 0.00 0.00 0.00 28 1012.8
20260503212105 61 269 3.5 9.6 0.00 0.00 0.00 29 1012.5
20260503211602 61 260 6.1 9.6 0.00 0.00 0.00 28 1012.7
20260503211057 62 281 7.8 12.2 0.00 0.00 0.00 27 1013.0
20260503210554 61 303 7.8 11.3 0.00 0.00 0.00 28 1012.9
20260503210050 61 283 1.7 8.7 0.00 0.00 0.00 29 1012.7
20260503205547 62 286 6.1 7.8 0.00 0.00 0.00 28 1012.8
20260503205043 62 271 5.2 9.6 0.00 0.00 0.00 28 1012.7
20260503204540 62 294 8.7 13.0 0.00 0.00 0.00 27 1012.8
20260503204037 61 277 5.2 6.1 0.00 0.00 0.00 29 1012.6
20260503203534 61 288 4.3 8.7 0.00 0.00 0.00 29 1012.8
20260503203031 61 276 7.8 11.3 0.00 0.00 0.00 27 1012.7
20260503202529 62 286 9.6 13.0 0.00 0.00 0.00 29 1012.6
20260503202027 61 289 6.1 12.2 0.00 0.00 0.00 29 1012.7